AAL21 EGLL-KDFW

Flight info

Callsign AAL21
Flight time N/A
Altitude 24000
Route CPT L9 DIDZA N14 OKSAW/N0488F320 N14 ELNIF DCT MEDOG/N0483F340 DCT KRAGY DCT PEMOB DCT VATRY DCT RESNO/M084F340 DCT 56N020W 56N030W 56N040W 55N050W DCT LOMSI/N0492F340 N668A TAFFY/N0482F360 DCT PQI DCT CABCI Q29 NIPPY DCT WILET DCT REBBL DCT LEJOY DCT EMNEM Q71 GEFFS DCT TONIO/N0481F380 DCT ARTUR DCT NIOLA DCT VLKNN Q30 IZAAC DCT YUYUN BEREE3
Aircraft B77W/H-SDE1E2E3FGHIJ2J3J4J5M1RWXY/LB1D1

Departure

Time N/A
Airport London Heathrow Airport (EGLL)

Arrival

Time 2026-05-05 14:53
Airport Dallas Fort Worth International Airport (KDFW)
Time Latitude Longitude Altitude Speed Heading
2026-05-05 14:30 32.28149 -96.31141 21949 ft 335 kts 289°
2026-05-05 14:30 32.29130 -96.33630 21435 ft 334 kts 295°
2026-05-05 14:31 32.30472 -96.35877 20931 ft 338 kts 307°
2026-05-05 14:31 32.32150 -96.37816 20437 ft 337 kts 310°
2026-05-05 14:31 32.33847 -96.39714 19956 ft 335 kts 310°
2026-05-05 14:31 32.35537 -96.41610 19457 ft 334 kts 310°
2026-05-05 14:32 32.37191 -96.43480 18984 ft 333 kts 310°
2026-05-05 14:32 32.38858 -96.45379 18494 ft 333 kts 310°
2026-05-05 14:32 32.40520 -96.47283 17996 ft 333 kts 309°
2026-05-05 14:32 32.42176 -96.49189 17468 ft 332 kts 310°
2026-05-05 14:33 32.43829 -96.51089 16967 ft 330 kts 310°
2026-05-05 14:33 32.45462 -96.52967 16741 ft 322 kts 310°
2026-05-05 14:33 32.47042 -96.54782 16574 ft 311 kts 309°
2026-05-05 14:33 32.48568 -96.56538 16395 ft 301 kts 309°
2026-05-05 14:34 32.50068 -96.58264 15996 ft 300 kts 310°
2026-05-05 14:34 32.51546 -96.59956 15772 ft 293 kts 310°
2026-05-05 14:34 32.53011 -96.61636 15413 ft 294 kts 310°
2026-05-05 14:34 32.54491 -96.63336 15038 ft 299 kts 310°
2026-05-05 14:35 32.56001 -96.65070 14627 ft 304 kts 310°
2026-05-05 14:35 32.57529 -96.66814 14227 ft 305 kts 311°
2026-05-05 14:35 32.59064 -96.68540 13819 ft 304 kts 311°
2026-05-05 14:35 32.60596 -96.70261 13463 ft 301 kts 311°
2026-05-05 14:36 32.62090 -96.71938 13301 ft 291 kts 311°
2026-05-05 14:36 32.63533 -96.73562 13160 ft 281 kts 311°
2026-05-05 14:36 32.64925 -96.75130 13031 ft 271 kts 311°
2026-05-05 14:36 32.66263 -96.76641 12917 ft 260 kts 311°
2026-05-05 14:37 32.67553 -96.78101 12813 ft 253 kts 311°
2026-05-05 14:37 32.68832 -96.79555 12762 ft 257 kts 311°
2026-05-05 14:37 32.70139 -96.81045 12661 ft 264 kts 311°
2026-05-05 14:37 32.71472 -96.82560 12574 ft 266 kts 310°
2026-05-05 14:38 32.72808 -96.84078 12462 ft 265 kts 310°
2026-05-05 14:38 32.74138 -96.85587 12372 ft 262 kts 310°
2026-05-05 14:38 32.75436 -96.87058 12261 ft 254 kts 310°
2026-05-05 14:38 32.76695 -96.88486 12214 ft 248 kts 310°
2026-05-05 14:39 32.77934 -96.89897 12145 ft 246 kts 310°
2026-05-05 14:39 32.79335 -96.91068 11991 ft 253 kts 329°
2026-05-05 14:39 32.81086 -96.91542 11771 ft 266 kts 350°
2026-05-05 14:39 32.82934 -96.91525 11557 ft 263 kts 352°
2026-05-05 14:40 32.84751 -96.91495 11375 ft 259 kts 352°
2026-05-05 14:40 32.86548 -96.91470 11161 ft 257 kts 352°
2026-05-05 14:40 32.88329 -96.91450 10952 ft 255 kts 352°
2026-05-05 14:40 32.90089 -96.91434 10748 ft 252 kts 352°
2026-05-05 14:41 32.91806 -96.91420 10530 ft 248 kts 352°
2026-05-05 14:41 32.93523 -96.91408 10342 ft 246 kts 352°
2026-05-05 14:41 32.95225 -96.91397 10161 ft 244 kts 352°
2026-05-05 14:41 32.96935 -96.91388 10118 ft 248 kts 352°
2026-05-05 14:42 32.98680 -96.91379 10052 ft 252 kts 352°
2026-05-05 14:42 33.00439 -96.91367 10012 ft 253 kts 352°
2026-05-05 14:42 33.02199 -96.91354 9996 ft 251 kts 352°
2026-05-05 14:42 33.03942 -96.91342 9982 ft 250 kts 352°
2026-05-05 14:43 33.05678 -96.91329 9867 ft 249 kts 352°
2026-05-05 14:43 33.07417 -96.91319 9653 ft 250 kts 353°
2026-05-05 14:43 33.09157 -96.91307 9382 ft 250 kts 353°
2026-05-05 14:43 33.10887 -96.91295 9176 ft 247 kts 352°
2026-05-05 14:44 33.12610 -96.91282 8978 ft 248 kts 353°
2026-05-05 14:44 33.14341 -96.91272 8678 ft 251 kts 353°
2026-05-05 14:44 33.16123 -96.91267 8282 ft 260 kts 353°
2026-05-05 14:44 33.17925 -96.91336 7882 ft 254 kts 341°
2026-05-05 14:45 33.19376 -96.92312 7387 ft 227 kts 305°
2026-05-05 14:45 33.20058 -96.93907 6932 ft 210 kts 283°
2026-05-05 14:45 33.20239 -96.95582 6506 ft 199 kts 267°
2026-05-05 14:45 33.19973 -96.97153 6088 ft 197 kts 251°
2026-05-05 14:46 33.19351 -96.98616 5772 ft 198 kts 237°
2026-05-05 14:46 33.18309 -96.99651 5558 ft 193 kts 218°
2026-05-05 14:46 33.17196 -97.00479 5396 ft 184 kts 219°
2026-05-05 14:46 33.16131 -97.01295 5234 ft 184 kts 219°
2026-05-05 14:47 33.15038 -97.02099 5058 ft 186 kts 212°
2026-05-05 14:47 33.13745 -97.02465 4807 ft 198 kts 193°
2026-05-05 14:47 33.12809 -97.02506 4603 ft 200 kts 190°
2026-05-05 14:47 33.11431 -97.02501 4317 ft 194 kts 189°
2026-05-05 14:48 33.10105 -97.02497 4056 ft 187 kts 190°
2026-05-05 14:48 33.08837 -97.02500 3809 ft 178 kts 191°
2026-05-05 14:48 33.07640 -97.02504 3591 ft 164 kts 192°
2026-05-05 14:48 33.06527 -97.02512 3405 ft 163 kts 193°
2026-05-05 14:49 33.05375 -97.02522 3208 ft 163 kts 193°
2026-05-05 14:49 33.04247 -97.02529 3016 ft 162 kts 193°
2026-05-05 14:49 33.03135 -97.02541 2818 ft 163 kts 192°
2026-05-05 14:49 33.01985 -97.02547 2574 ft 166 kts 189°
2026-05-05 14:50 33.00849 -97.02543 2363 ft 159 kts 191°
2026-05-05 14:50 32.99786 -97.02548 2146 ft 145 kts 189°
2026-05-05 14:50 32.98829 -97.02554 1969 ft 129 kts 188°
2026-05-05 14:50 32.97870 -97.02565 1835 ft 143 kts 186°
2026-05-05 14:51 32.96903 -97.02568 1619 ft 133 kts 187°
2026-05-05 14:51 32.95993 -97.02571 1466 ft 133 kts 184°
2026-05-05 14:51 32.95072 -97.02562 1312 ft 130 kts 184°
2026-05-05 14:51 32.94174 -97.02580 1086 ft 130 kts 184°
2026-05-05 14:52 32.93269 -97.02586 944 ft 127 kts 182°
2026-05-05 14:52 32.92370 -97.02594 777 ft 132 kts 182°
2026-05-05 14:52 32.91455 -97.02599 595 ft 133 kts 182°
2026-05-05 14:52 32.90615 -97.02605 583 ft 106 kts 180°
2026-05-05 14:53 32.90002 -97.02607 576 ft 70 kts 180°
2026-05-05 14:53 32.89621 -97.02609 575 ft 50 kts 180°
2026-05-05 14:53 32.89341 -97.02621 579 ft 34 kts 191°
2026-05-05 14:53 32.89150 -97.02727 586 ft 30 kts 210°
2026-05-05 14:54 32.88967 -97.02805 579 ft 28 kts 184°
2026-05-05 14:54 32.88773 -97.02808 581 ft 28 kts 181°
2026-05-05 14:54 32.88631 -97.02811 580 ft 9 kts 187°
2026-05-05 14:54 32.88601 -97.02872 578 ft 12 kts 263°
2026-05-05 14:55 32.88600 -97.03052 578 ft 28 kts 271°
2026-05-05 14:55 32.88602 -97.03291 583 ft 29 kts 270°
2026-05-05 14:55 32.88602 -97.03529 589 ft 29 kts 270°
2026-05-05 14:55 32.88604 -97.03767 595 ft 29 kts 270°
2026-05-05 14:56 32.88604 -97.04006 606 ft 29 kts 270°
2026-05-05 14:56 32.88605 -97.04244 616 ft 29 kts 270°
2026-05-05 14:56 32.88607 -97.04483 596 ft 29 kts 271°
2026-05-05 14:56 32.88607 -97.04681 593 ft 12 kts 270°
2026-05-05 14:57 32.88631 -97.04764 593 ft 9 kts 334°
2026-05-05 14:57 32.88748 -97.04770 595 ft 23 kts
2026-05-05 14:57 32.88912 -97.04767 595 ft 23 kts
2026-05-05 14:57 32.89075 -97.04764 597 ft 23 kts
2026-05-05 14:58 32.89239 -97.04767 600 ft 23 kts 359°
2026-05-05 14:58 32.89400 -97.04767 600 ft 23 kts
2026-05-05 14:58 32.89563 -97.04764 602 ft 23 kts 360°
2026-05-05 14:58 32.89726 -97.04765 602 ft 23 kts
2026-05-05 14:59 32.89857 -97.04758 602 ft 14 kts 12°
2026-05-05 14:59 32.89896 -97.04702 602 ft 8 kts 78°
2026-05-05 14:59 32.89899 -97.04640 603 ft 7 kts 91°
2026-05-05 14:59 32.89898 -97.04596 603 ft 4 kts 90°
2026-05-05 15:00 32.89898 -97.04575 603 ft 2 kts 90°
2026-05-05 15:00 32.89898 -97.04570 603 ft 1 kts 90°
2026-05-05 15:00 32.89898 -97.04569 603 ft 0 kts 90°